Simultaneous Nadir Overpasses (SNOs) Predictions

Prediction of SNOs between GOES-17 and TERRA Satellite Orbit:

Table of predicted SNOs for the next 14.0 days since TLE Epoch: 1/27/2024
Index Date Time (GOES-17) GOES-17 Lat,Lon TERRA Lat,Lon Distance(km) Time Diff (sec)
1 01/27/2024 16:39:07 0.02,-104.67 -0.79,-100.78 441.97 80
2 01/28/2024 04:59:19 -0.02,-104.66 -0.22,-105.69 116.69 80
3 01/30/2024 04:39:43 -0.02,-104.66 0.63,-101.60 348.01 80
4 01/30/2024 16:59:43 0.02,-104.67 0.43,-106.47 204.64 80
5 02/01/2024 16:45:27 0.02,-104.67 -0.45,-102.38 260.38 80
6 02/02/2024 05:05:38 -0.02,-104.67 -0.60,-107.29 297.69 80
7 02/04/2024 04:46:02 -0.02,-104.67 0.31,-103.21 166.97 80
8 02/04/2024 17:06:03 0.02,-104.67 0.73,-108.07 386.37 80
9 02/06/2024 16:51:46 0.02,-104.66 -0.15,-103.98 78.14 80
10 02/07/2024 05:11:57 -0.02,-104.67 -0.88,-108.89 479.54 80
11 02/09/2024 04:52:18 -0.03,-104.66 -0.08,-104.78 15.28 80
